Regional Weather Roundup
Issued by NWS Midland/Odessa, TX

Skip options and go directly to product.
Home | Oldest Version | Previous Version | Current Version | All | Graphics & Text | Save Text | Print | Product List | Glossary On

Skip product version selection by date and time.   
147
ASUS44 KMAF 230601
RWRMAF
MIDLAND AREA WEATHER ROUNDUP
NATIONAL WEATHER SERVICE MIDLAND TX
100 AM CDT SAT MAY 23 2015

...IN SOUTHWEST TEXAS AND SOUTHEAST NEW MEXICO...

CITY           SKY/WX    TMP DP  RH WIND       PRES   REMARKS
ALPINE         MOCLDY    69  60  74 S18G33    30.07F
ANDREWS        MOCLDY    67  65  91 SE14G21   29.99F
ARTESIA        CLEAR     66  64  94 SE20G26   29.95F
BIG SPRING     MOCLDY    74  67  79 SE18      30.02F
CARLSBAD       CLOUDY    69  64  84 SE10      29.95F
DRYDEN           N/A     76  67  73 S12       29.99R
FORT STOCKTON  CLOUDY    71  65  81 SE25G36   29.92F
GUAD PASS      FOG       60  60 100 NE25      30.05S VSB 1
HOBBS          CLOUDY    66  66 100 SE13G20   30.02F
MARFA          MOCLDY    64  61  88 S5        30.10R
MIDLAND AIRPK  CLOUDY    71  65  81 SE15G24   29.98F
MIDLAND INTL   CLOUDY    70  65  84 SE16      29.97F
ODESSA         CLOUDY    70  64  81 SE17      29.98S
PECOS          MOCLDY    71  65  81 E14       29.92R
PRESIDIO       FAIR      82  53  35 MISG      29.91S
SEMINOLE       CLOUDY    67  64  91 SE8       30.03S
SNYDER         MOCLDY    67  66  95 SE13      30.05S
WINK           CLOUDY    72  63  73 SE17G25   29.95R
$$
...OTHER STATIONS IN TEXAS...

CITY           SKY/WX    TMP DP  RH WIND       PRES   REMARKS
ABILENE        CLOUDY    71  68  90 SE14      30.05S
AMARILLO       FOG       57  57 100 SE16      30.07F VSB 3/4
AUSTIN         CLOUDY    74  72  93 SE8       30.06F
BROWNSVILLE    PTCLDY    79  76  90 SE10      30.03S
CORPUS CHRISTI MOCLDY    79  75  87 SE9       30.04R
DALLAS FTW     CLOUDY    67  66  97 E3        30.08F
DEL RIO        CLOUDY    77  71  82 SE8       30.01R
EL PASO        CLOUDY    78  16   9 W24G33    29.94R
HOUSTON INT    PTCLDY    73  72  96 SE8       30.09S
LUBBOCK        DRZL/FOG  61  61 100 SE14      30.05F VSB 1/4
SAN ANGELO     MOCLDY    70  67  90 E6        30.03S
SAN ANTONIO    CLOUDY    77  73  87 SE12      30.07R
WACO           CLOUDY    72  68  87 SE10      30.07F
WICHITA FALLS  NOT AVBL
$$
...OTHER LOCATIONS IN NEW MEXICO...

CITY           SKY/WX    TMP DP  RH WIND       PRES   REMARKS
ALAMAGORDO     MOCLDY    72  37  28 S14       29.94S
ALBUQUERQUE    MOCLDY    62  27  26 SE10      29.96S
CANNON AFB     DRZL/FOG  59  59 100 SE13      30.04F VSB 1/2
CLOVIS         CLOUDY    57  57 100 SE14      30.02F VSB 1
HOLLOMAN AFB   MOCLDY    71  48  45 S15       29.92S
ROSWELL        CLOUDY    67  63  87 SE16      29.94F
RUIDOSO        PTCLDY    54  50  87 S7        30.12F
SANTA FE       MOCLDY    56  49  77 SE16      30.02R
TRUTH OR CONSE PTCLDY    68  17  14 W13       29.93F
TUCUMCARI      CLOUDY    62  56  80 S9        30.02F
$$

USA.gov is the U.S. government's official web portal to all federal, state and local government web resources and services.